TimeEDT,TemperatureF,Dew PointF,Humidity,Sea Level PressureIn,VisibilityMPH,Wind Direction,Wind SpeedMPH,Gust SpeedMPH,PrecipitationIn,Events,Conditions,WindDirDegrees,DateUTC
12:15 AM,68.0,66.2,94,29.90,10.0,SSE,3.5,-,N/A,,Clear,160,2013-06-26 04:15:00
12:35 AM,69.8,66.2,88,29.90,10.0,ESE,3.5,-,N/A,,Mostly Cloudy,110,2013-06-26 04:35:00
12:55 AM,69.8,66.2,88,29.91,10.0,Calm,Calm,-,N/A,,Overcast,0,2013-06-26 04:55:00
1:15 AM,69.8,66.2,88,29.93,10.0,Calm,Calm,-,N/A,,Overcast,0,2013-06-26 05:15:00
1:35 AM,69.8,66.2,88,29.91,10.0,ESE,5.8,-,N/A,,Overcast,110,2013-06-26 05:35:00
1:55 AM,68.0,66.2,94,29.90,10.0,Calm,Calm,-,N/A,,Mostly Cloudy,0,2013-06-26 05:55:00
2:15 AM,68.0,66.2,94,29.89,10.0,Calm,Calm,-,N/A,,Scattered Clouds,0,2013-06-26 06:15:00
2:35 AM,68.0,66.2,94,29.88,10.0,Calm,Calm,-,N/A,,Scattered Clouds,0,2013-06-26 06:35:00
2:55 AM,68.0,64.4,88,29.89,10.0,Calm,Calm,-,N/A,,Mostly Cloudy,0,2013-06-26 06:55:00
3:15 AM,68.0,64.4,88,29.89,10.0,Calm,Calm,-,N/A,,Overcast,0,2013-06-26 07:15:00
3:35 AM,68.0,64.4,88,29.90,10.0,Calm,Calm,-,N/A,,Overcast,0,2013-06-26 07:35:00
3:55 AM,68.0,66.2,94,29.90,10.0,East,4.6,-,N/A,,Overcast,80,2013-06-26 07:55:00
4:15 AM,68.0,66.2,94,29.90,10.0,ESE,3.5,-,N/A,,Overcast,110,2013-06-26 08:15:00
4:35 AM,68.0,66.2,94,29.90,10.0,ESE,3.5,-,N/A,,Overcast,110,2013-06-26 08:35:00
4:55 AM,68.0,66.2,94,29.89,10.0,Calm,Calm,-,N/A,,Scattered Clouds,0,2013-06-26 08:55:00
5:15 AM,68.0,64.4,88,29.89,7.0,Calm,Calm,-,N/A,,Clear,0,2013-06-26 09:15:00
5:35 AM,68.0,66.2,94,29.88,7.0,Calm,Calm,-,N/A,,Scattered Clouds,0,2013-06-26 09:35:00
5:55 AM,68.0,64.4,88,29.89,10.0,WSW,3.5,-,N/A,,Scattered Clouds,240,2013-06-26 09:55:00
6:15 AM,68.0,66.2,94,29.88,7.0,SSW,4.6,-,0.01,Rain,Light Rain,200,2013-06-26 10:15:00
6:35 AM,68.0,66.2,94,29.87,5.0,SW,4.6,-,0.02,Rain,Light Rain,220,2013-06-26 10:35:00
6:55 AM,68.0,66.2,94,29.87,5.0,SSW,5.8,-,0.03,Rain,Light Rain,200,2013-06-26 10:55:00
7:15 AM,68.0,66.2,94,29.84,7.0,South,4.6,-,N/A,Rain,Light Rain,180,2013-06-26 11:15:00
7:35 AM,68.0,66.2,94,29.85,10.0,SW,3.5,-,N/A,Rain,Light Rain,220,2013-06-26 11:35:00
7:55 AM,68.0,66.2,94,29.88,10.0,SW,5.8,-,N/A,,Scattered Clouds,230,2013-06-26 11:55:00
8:15 AM,68.0,66.2,94,29.89,10.0,SW,4.6,-,N/A,Rain,Light Rain,230,2013-06-26 12:15:00
8:35 AM,68.0,66.2,94,29.91,7.0,WSW,3.5,-,0.02,Rain,Rain,240,2013-06-26 12:35:00
8:55 AM,68.0,66.2,94,29.89,4.0,South,5.8,-,0.09,Rain,Heavy Rain,180,2013-06-26 12:55:00
9:15 AM,68.0,66.2,94,29.90,5.0,Calm,Calm,-,0.04,Rain,Heavy Rain,0,2013-06-26 13:15:00
9:35 AM,66.2,64.4,94,29.93,1.8,WNW,8.1,-,0.35,Rain,Heavy Rain,300,2013-06-26 13:35:00
9:55 AM,64.4,64.4,100,29.94,2.5,WNW,10.4,-,0.52,Rain,Heavy Rain,300,2013-06-26 13:55:00
10:15 AM,64.4,62.6,94,29.95,1.8,SW,3.5,-,0.19,Rain,Heavy Rain,230,2013-06-26 14:15:00
10:55 AM,64.4,62.6,94,29.91,10.0,Calm,Calm,-,0.42,Rain,Light Rain,0,2013-06-26 14:55:00
11:15 AM,64.4,64.4,100,29.87,10.0,East,9.2,-,N/A,Rain,Light Rain,100,2013-06-26 15:15:00
11:35 AM,68.0,64.4,88,29.85,10.0,SE,6.9,-,N/A,,Clear,130,2013-06-26 15:35:00
11:55 AM,69.8,64.4,83,29.87,10.0,SE,5.8,-,N/A,,Clear,140,2013-06-26 15:55:00
12:15 PM,68.0,64.4,88,29.88,10.0,South,4.6,-,N/A,,Scattered Clouds,190,2013-06-26 16:15:00
12:35 PM,68.0,64.4,88,29.86,10.0,SE,5.8,-,0.01,Rain,Rain,130,2013-06-26 16:35:00
12:55 PM,68.0,64.4,88,29.87,10.0,Calm,Calm,-,0.02,Rain,Light Rain,0,2013-06-26 16:55:00
1:15 PM,71.6,68.0,88,29.85,10.0,SSE,3.5,-,N/A,Rain,Light Rain,150,2013-06-26 17:15:00
1:35 PM,73.4,68.0,83,29.83,10.0,SSE,4.6,-,N/A,,Scattered Clouds,150,2013-06-26 17:35:00
1:55 PM,75.2,69.8,83,29.82,10.0,South,5.8,-,N/A,,Clear,180,2013-06-26 17:55:00
2:15 PM,78.8,69.8,74,29.81,10.0,Calm,Calm,-,N/A,,Clear,0,2013-06-26 18:15:00
2:35 PM,78.8,69.8,74,29.81,10.0,South,3.5,-,N/A,,Clear,170,2013-06-26 18:35:00
2:55 PM,80.6,69.8,70,29.81,10.0,South,8.1,-,N/A,,Scattered Clouds,190,2013-06-26 18:55:00
3:15 PM,80.6,71.6,74,29.81,10.0,South,4.6,-,N/A,,Mostly Cloudy,190,2013-06-26 19:15:00
3:35 PM,78.8,71.6,78,29.80,10.0,South,8.1,-,N/A,,Overcast,190,2013-06-26 19:35:00
3:55 PM,78.8,71.6,78,29.79,10.0,SSW,5.8,-,N/A,,Overcast,200,2013-06-26 19:55:00
4:15 PM,78.8,71.6,78,29.79,10.0,SW,4.6,-,N/A,,Mostly Cloudy,230,2013-06-26 20:15:00
4:35 PM,80.6,69.8,70,29.78,10.0,South,8.1,-,N/A,,Scattered Clouds,190,2013-06-26 20:35:00
4:55 PM,80.6,71.6,74,29.77,10.0,SW,3.5,-,N/A,,Mostly Cloudy,220,2013-06-26 20:55:00
5:15 PM,77.0,68.0,74,29.78,10.0,North,6.9,-,N/A,,Overcast,360,2013-06-26 21:15:00
5:35 PM,75.2,68.0,78,29.78,10.0,NE,6.9,-,N/A,,Overcast,40,2013-06-26 21:35:00
5:55 PM,77.0,68.0,74,29.78,10.0,SE,3.5,-,N/A,,Mostly Cloudy,140,2013-06-26 21:55:00
6:15 PM,77.0,68.0,74,29.76,10.0,Calm,Calm,-,N/A,,Mostly Cloudy,0,2013-06-26 22:15:00
6:35 PM,77.0,68.0,74,29.77,10.0,Calm,Calm,-,N/A,,Mostly Cloudy,0,2013-06-26 22:35:00
6:55 PM,77.0,69.8,78,29.77,10.0,Calm,Calm,-,N/A,,Overcast,0,2013-06-26 22:55:00
7:15 PM,77.0,71.6,83,29.77,10.0,SSE,5.8,-,N/A,,Overcast,150,2013-06-26 23:15:00
7:35 PM,75.2,69.8,83,29.77,10.0,South,4.6,-,N/A,,Overcast,180,2013-06-26 23:35:00
7:55 PM,69.8,68.0,94,29.80,1.8,West,6.9,-,0.16,Rain,Heavy Rain,270,2013-06-26 23:55:00
8:15 PM,68.0,68.0,100,29.79,4.0,West,3.5,-,0.08,Rain,Heavy Rain,270,2013-06-27 00:15:00
8:35 PM,68.0,68.0,100,29.78,5.0,Calm,Calm,-,0.12,Rain,Light Rain,0,2013-06-27 00:35:00
8:55 PM,68.0,68.0,100,29.78,7.0,Calm,Calm,-,0.14,Rain,Light Rain,0,2013-06-27 00:55:00
9:15 PM,68.0,68.0,100,29.76,10.0,Calm,Calm,-,N/A,Rain,Light Rain,0,2013-06-27 01:15:00
9:35 PM,68.0,68.0,100,29.76,10.0,Calm,Calm,-,N/A,,Scattered Clouds,0,2013-06-27 01:35:00
9:55 PM,68.0,68.0,100,29.76,10.0,Calm,Calm,-,N/A,,Mostly Cloudy,0,2013-06-27 01:55:00
10:15 PM,68.0,68.0,100,29.77,7.0,Calm,Calm,-,N/A,,Overcast,0,2013-06-27 02:15:00
10:35 PM,68.0,68.0,100,29.77,7.0,Calm,Calm,-,N/A,,Overcast,0,2013-06-27 02:35:00
10:55 PM,68.0,68.0,100,29.78,7.0,Calm,Calm,-,N/A,,Overcast,0,2013-06-27 02:55:00
11:15 PM,68.0,68.0,100,29.78,7.0,North,3.5,-,N/A,,Mostly Cloudy,10,2013-06-27 03:15:00
11:35 PM,68.0,68.0,100,29.78,7.0,Calm,Calm,-,N/A,,Mostly Cloudy,0,2013-06-27 03:35:00
11:55 PM,68.0,68.0,100,29.79,4.0,Calm,Calm,-,N/A,,Overcast,0,2013-06-27 03:55:00